Tracking 20621 objects as of 29-Mar-2020
HD Live streaming from Space Station
objects crossing your sky now

EXPLORER 22

Track EXPLORER 22 now!
10-day predictions
EXPLORER 22 is classified as:


NORAD ID: 899
Int'l Code: 1964-064A
Perigee: 875.9 km
Apogee: 1,051.1 km
Inclination: 79.7 °
Period: 104.2 minutes
Semi major axis: 7334 km
RCS: 1.5662 m2 (large)
Launch date: October 10, 1964
Source: United States (US)
Launch site: AIR FORCE WESTERN TEST RANGE (AFWTR)
aabbcc
Your satellite tracking list
Your tracking list is empty




NASA's NSSDC Master Catalog

Two Line Element Set (TLE):
1   899U 64064A   20088.72155586 +.00000046 +00000-0 +35667-4 0  9994
2   899 079.6879 090.2676 0119440 280.4909 078.2801 13.82123171791108
Source of the keplerian elements: AFSPC